"SCLK","SCET","ORBIT_NUMBER","ALTITUDE","LATITUDE_PLANEOGRAPHIC","LATITUDE_PLANETOCENTRIC","LOCAL_TRUE_SOLAR_TIME","WEST_LONGITUDE","X_SUN_DIR_DISTANCE","RHO_PRP_SUN_DISTANCE","SOLAR_ZENITH_ANGLE","ELECTRON_PLASMA_FREQUENCY","FPE_QUALITY","FPP_VERIFICATION","ELECTRON_PLASMA_DENSITY","ELECTRON_CYCLOTRON_PERIOD","FCP_QUALITY","B_MAGNITUDE"
"1/0365370331.49529",2014-11-29T19:45:35.698,13850,1564.00,41.16,40.90,"00:07:50",51.70,-1.220,0.790,146.89,,,,,2.67e+00,1,1.34e+01
"1/0365370339.19579",2014-11-29T19:45:43.241,13850,1553.00,41.44,41.18,"00:05:40",51.71,-1.220,0.790,146.75,,,,,2.75e+00,1,1.30e+01
"1/0365370346.55230",2014-11-29T19:45:50.785,13850,1542.00,41.72,41.46,"00:05:48",51.71,-1.210,0.800,146.61,,,,,2.69e+00,1,1.33e+01
"1/0365370354.25280",2014-11-29T19:45:58.328,13850,1532.00,42.01,41.74,"00:03:37",51.72,-1.210,0.800,146.47,,,,,2.71e+00,1,1.32e+01
"1/0365370361.60866",2014-11-29T19:46:05.871,13850,1521.00,42.29,42.03,"00:03:45",51.72,-1.200,0.800,146.33,,,,,2.69e+00,1,1.33e+01
"1/0365370369.30917",2014-11-29T19:46:13.414,13850,1510.00,42.58,42.31,"00:03:52",51.72,-1.200,0.800,146.18,,,,,2.71e+00,1,1.32e+01
"1/0365370377.00967",2014-11-29T19:46:20.957,13850,1499.00,42.87,42.60,"00:03:59",51.72,-1.190,0.800,146.04,,,,,2.62e+00,1,1.36e+01
"1/0365370384.36618",2014-11-29T19:46:28.501,13850,1489.00,43.16,42.89,"00:04:07",51.72,-1.190,0.800,145.89,,,,,2.71e+00,1,1.32e+01
"1/0365370392.06668",2014-11-29T19:46:36.044,13850,1478.00,43.45,43.18,"00:01:57",51.73,-1.190,0.800,145.73,,,,,2.71e+00,1,1.32e+01
"1/0365370399.42254",2014-11-29T19:46:43.587,13850,1467.00,43.74,43.47,"00:02:04",51.73,-1.180,0.810,145.58,,,,,2.71e+00,1,1.32e+01
"1/0365370407.12304",2014-11-29T19:46:51.130,13850,1457.00,44.03,43.76,"00:02:11",51.73,-1.180,0.810,145.42,3.80e+01,1,,1.79e+01,2.58e+00,1,1.38e+01
"1/0365370414.47890",2014-11-29T19:46:58.673,13850,1446.00,44.33,44.05,"00:02:19",51.73,-1.170,0.810,145.26,4.40e+01,1,,2.40e+01,2.58e+00,1,1.38e+01
"1/0365370422.18006",2014-11-29T19:47:06.217,13850,1435.00,44.62,44.35,"00:02:26",51.73,-1.170,0.810,145.10,,,,,2.50e+00,1,1.43e+01
"1/0365370444.59228",2014-11-29T19:47:28.846,13850,1404.00,45.51,45.24,"00:05:05",51.72,-1.150,0.810,144.61,,,,,2.49e+00,1,1.44e+01
"1/0365370452.29278",2014-11-29T19:47:36.389,13850,1393.00,45.81,45.54,"00:05:13",51.72,-1.150,0.820,144.44,,,,,2.55e+00,1,1.40e+01
"1/0365370459.64929",2014-11-29T19:47:43.933,13850,1383.00,46.12,45.84,"00:05:20",51.72,-1.140,0.820,144.26,,,,,2.61e+00,1,1.37e+01
"1/0365370467.34979",2014-11-29T19:47:51.476,13850,1372.00,46.42,46.14,"00:07:45",51.71,-1.140,0.820,144.09,,,,,2.75e+00,1,1.30e+01
"1/0365370475.05029",2014-11-29T19:47:59.019,13850,1362.00,46.72,46.45,"00:07:52",51.71,-1.130,0.820,143.91,,,,,2.76e+00,1,1.29e+01
"1/0365370490.10666",2014-11-29T19:48:14.105,13850,1341.00,47.34,47.06,"00:10:24",51.70,-1.120,0.820,143.55,,,,,2.94e+00,1,1.21e+01
"1/0365370497.46317",2014-11-29T19:48:21.649,13850,1331.00,47.64,47.37,"00:10:32",51.70,-1.120,0.830,143.37,,,,,2.81e+00,1,1.27e+01
"1/0365370505.16367",2014-11-29T19:48:29.192,13850,1321.00,47.95,47.68,"00:12:57",51.69,-1.110,0.830,143.18,,,,,2.91e+00,1,1.23e+01
"1/0365370512.51953",2014-11-29T19:48:36.735,13850,1311.00,48.26,47.99,"00:15:22",51.68,-1.110,0.830,142.99,,,,,2.83e+00,1,1.26e+01
"1/0365370520.22003",2014-11-29T19:48:44.278,13850,1300.00,48.58,48.30,"00:15:29",51.68,-1.100,0.830,142.80,,,,,2.68e+00,1,1.33e+01
"1/0365370527.57589",2014-11-29T19:48:51.821,13850,1290.00,48.89,48.61,"00:17:54",51.67,-1.100,0.830,142.61,6.60e+01,2,,5.40e+01,2.61e+00,2,1.37e+01
"1/0365370535.27705",2014-11-29T19:48:59.365,13850,1280.00,49.21,48.93,"00:20:19",51.66,-1.090,0.830,142.42,6.40e+01,2,,5.08e+01,2.69e+00,1,1.33e+01
"1/0365370542.63291",2014-11-29T19:49:06.908,13850,1270.00,49.52,49.24,"00:22:43",51.65,-1.090,0.840,142.22,5.70e+01,1,,4.03e+01,2.57e+00,2,1.39e+01
"1/0365370550.33341",2014-11-29T19:49:14.451,13850,1260.00,49.84,49.56,"00:25:08",51.64,-1.080,0.840,142.02,4.20e+01,1,,2.19e+01,2.43e+00,1,1.47e+01
"1/0365370558.03391",2014-11-29T19:49:21.994,13850,1250.00,50.16,49.88,"00:27:33",51.63,-1.070,0.840,141.82,5.00e+01,1,,3.10e+01,2.38e+00,1,1.50e+01
"1/0365370565.38977",2014-11-29T19:49:29.537,13850,1240.00,50.48,50.20,"00:29:58",51.62,-1.070,0.840,141.61,4.40e+01,2,,2.40e+01,2.41e+00,1,1.48e+01
"1/0365370573.09092",2014-11-29T19:49:37.081,13850,1230.00,50.80,50.52,"00:32:23",51.61,-1.060,0.840,141.41,,,,,2.33e+00,1,1.53e+01
"1/0365370580.44678",2014-11-29T19:49:44.624,13850,1220.00,51.12,50.84,"00:37:05",51.59,-1.060,0.850,141.20,,,,,2.23e+00,1,1.60e+01
"1/0365370588.14728",2014-11-29T19:49:52.167,13850,1210.00,51.45,51.17,"00:39:30",51.58,-1.050,0.850,140.99,,,,,2.31e+00,1,1.55e+01
"1/0365370595.50315",2014-11-29T19:49:59.710,13850,1200.00,51.77,51.49,"00:44:12",51.56,-1.050,0.850,140.78,,,,,2.31e+00,1,1.55e+01
"1/0365370603.20365",2014-11-29T19:50:07.253,13850,1190.00,52.10,51.82,"00:46:37",51.55,-1.040,0.850,140.56,,,,,2.30e+00,1,1.55e+01
"1/0365370610.56016",2014-11-29T19:50:14.797,13850,1180.00,52.43,52.15,"00:51:20",51.53,-1.040,0.850,140.34,,,,,2.41e+00,1,1.48e+01
"1/0365370618.26066",2014-11-29T19:50:22.340,13850,1170.00,52.76,52.48,"00:53:44",51.52,-1.030,0.860,140.12,,,,,2.43e+00,1,1.47e+01
"1/0365370625.61652",2014-11-29T19:50:29.883,13850,1160.00,53.09,52.81,"00:58:27",51.50,-1.030,0.860,139.90,,,,,2.50e+00,1,1.43e+01
"1/0365370633.31702",2014-11-29T19:50:37.426,13850,1151.00,53.42,53.14,"01:03:09",51.48,-1.020,0.860,139.68,,,,,2.51e+00,1,1.42e+01
"1/0365370641.01752",2014-11-29T19:50:44.969,13850,1141.00,53.75,53.48,"01:07:52",51.46,-1.010,0.860,139.45,4.20e+01,2,,2.19e+01,2.67e+00,1,1.34e+01
"1/0365370648.37404",2014-11-29T19:50:52.513,13850,1131.00,54.09,53.81,"01:12:34",51.44,-1.010,0.860,139.23,4.30e+01,2,,2.29e+01,2.72e+00,1,1.31e+01
"1/0365370656.07454",2014-11-29T19:51:00.056,13850,1122.00,54.43,54.15,"01:19:34",51.41,-1.000,0.870,139.00,4.40e+01,2,,2.40e+01,2.86e+00,1,1.25e+01
"1/0365370663.43040",2014-11-29T19:51:07.599,13850,1112.00,54.76,54.49,"01:24:16",51.39,-1.000,0.870,138.76,4.10e+01,1,,2.08e+01,3.14e+00,1,1.14e+01
"1/0365370671.13090",2014-11-29T19:51:15.142,13850,1102.00,55.10,54.83,"01:28:58",51.37,-0.990,0.870,138.53,4.60e+01,2,,2.62e+01,,,
"1/0365370678.48676",2014-11-29T19:51:22.685,13850,1093.00,55.44,55.17,"01:35:58",51.34,-0.990,0.870,138.29,4.60e+01,2,,2.62e+01,,,
"1/0365370686.18791",2014-11-29T19:51:30.229,13850,1083.00,55.79,55.51,"01:42:58",51.31,-0.980,0.880,138.05,4.60e+01,1,,2.62e+01,3.01e+00,1,1.19e+01
"1/0365370693.54377",2014-11-29T19:51:37.772,13850,1074.00,56.13,55.86,"01:47:41",51.29,-0.970,0.880,137.81,4.40e+01,2,,2.40e+01,3.02e+00,1,1.18e+01
"1/0365370701.24427",2014-11-29T19:51:45.315,13850,1065.00,56.48,56.20,"01:54:40",51.26,-0.970,0.880,137.57,4.40e+01,1,,2.40e+01,2.75e+00,1,1.30e+01
"1/0365370708.60014",2014-11-29T19:51:52.858,13850,1055.00,56.82,56.55,"02:01:40",51.23,-0.960,0.880,137.32,4.20e+01,1,,2.19e+01,2.86e+00,1,1.25e+01
"1/0365370716.30064",2014-11-29T19:52:00.401,13850,1046.00,57.17,56.90,"02:10:58",51.19,-0.960,0.880,137.07,4.00e+01,1,,1.98e+01,2.87e+00,1,1.25e+01
"1/0365370724.00179",2014-11-29T19:52:07.945,13850,1037.00,57.52,57.25,"02:17:58",51.16,-0.950,0.890,136.82,3.90e+01,1,,1.89e+01,2.81e+00,1,1.27e+01
"1/0365370731.35765",2014-11-29T19:52:15.488,13850,1027.00,57.87,57.60,"02:27:15",51.12,-0.950,0.890,136.57,4.30e+01,2,,2.29e+01,2.70e+00,1,1.32e+01
"1/0365370739.05815",2014-11-29T19:52:23.031,13850,1018.00,58.22,57.95,"02:34:15",51.09,-0.940,0.890,136.32,,,,,2.67e+00,1,1.34e+01
"1/0365372296.51882",2014-11-29T20:18:20.734,13850,712.00,29.99,29.92,"09:28:50",244.17,0.630,1.030,58.81,,,,,1.49e+00,1,2.39e+01
"1/0365372311.57518",2014-11-29T20:18:35.820,13850,727.00,29.17,29.10,"09:29:04",244.17,0.640,1.030,58.13,,,,,1.73e+00,1,2.07e+01
"1/0365372319.27568",2014-11-29T20:18:43.363,13850,734.00,28.77,28.70,"09:29:12",244.17,0.650,1.030,57.79,,,,,1.99e+00,1,1.79e+01
"1/0365372545.47032",2014-11-29T20:22:29.660,13850,984.00,17.23,17.24,"08:49:19",244.36,0.860,0.960,48.55,,,,,2.27e+00,1,1.58e+01
"1/0365372764.30778",2014-11-29T20:26:08.412,13850,1265.00,7.35,7.43,"07:34:57",244.70,1.030,0.900,41.29,,,,,1.68e+00,1,2.12e+01
"1/0365372824.53454",2014-11-29T20:27:08.758,13850,1348.00,4.84,4.94,"07:10:43",244.81,1.080,0.890,39.60,,,,,1.83e+00,1,1.95e+01
"1/0365372870.04891",2014-11-29T20:27:54.017,13850,1411.00,3.01,3.13,"06:53:07",244.89,1.110,0.880,38.41,,,,,1.47e+00,1,2.43e+01
"1/0365372877.40477",2014-11-29T20:28:01.560,13850,1422.00,2.71,2.83,"06:48:39",244.91,1.110,0.880,38.22,,,,,1.59e+00,1,2.25e+01
"1/0365372937.63153",2014-11-29T20:29:01.906,13850,1508.00,0.36,0.50,"06:22:07",245.03,1.160,0.860,36.76,,,,,1.62e+00,1,2.21e+01
